TimePDT,TemperatureF,Dew PointF,Humidity,Sea Level PressureIn,VisibilityMPH,Wind Direction,Wind SpeedMPH,Gust SpeedMPH,PrecipitationIn,Events,Conditions,WindDirDegrees,DateUTC
12:53 AM,30.0,17.1,59,30.31,10.0,South,6.9,-,N/A,,Clear,180,2012-10-06 07:53:00
1:53 AM,23.0,16.0,74,30.33,10.0,Calm,Calm,-,N/A,,Clear,0,2012-10-06 08:53:00
2:53 AM,21.9,16.0,78,30.32,10.0,Calm,Calm,-,N/A,,Clear,0,2012-10-06 09:53:00
3:53 AM,19.9,15.1,81,30.32,10.0,Calm,Calm,-,N/A,,Clear,0,2012-10-06 10:53:00
4:53 AM,19.9,15.1,81,30.32,10.0,Calm,Calm,-,N/A,,Clear,0,2012-10-06 11:53:00
5:53 AM,17.1,12.9,84,30.35,10.0,Calm,Calm,-,N/A,,Clear,0,2012-10-06 12:53:00
6:53 AM,16.0,12.0,84,30.37,10.0,Calm,Calm,-,N/A,,Clear,0,2012-10-06 13:53:00
7:53 AM,23.0,16.0,74,30.38,10.0,Calm,Calm,-,N/A,,Clear,0,2012-10-06 14:53:00
8:53 AM,30.9,19.9,64,30.39,10.0,Calm,Calm,-,N/A,,Clear,0,2012-10-06 15:53:00
9:53 AM,39.9,21.9,49,30.39,10.0,Calm,Calm,-,N/A,,Clear,0,2012-10-06 16:53:00
10:53 AM,46.0,19.0,34,30.36,10.0,Calm,Calm,-,N/A,,Clear,0,2012-10-06 17:53:00
11:53 AM,51.1,17.1,26,30.33,10.0,NNW,3.5,-,N/A,,Clear,330,2012-10-06 18:53:00
12:53 PM,55.9,17.1,22,30.30,10.0,Variable,4.6,-,N/A,,Clear,0,2012-10-06 19:53:00
1:53 PM,57.9,12.9,17,30.28,10.0,Calm,Calm,-,N/A,,Clear,0,2012-10-06 20:53:00
2:53 PM,59.0,14.0,17,30.26,10.0,NNW,4.6,-,N/A,,Clear,330,2012-10-06 21:53:00
3:53 PM,60.1,14.0,16,30.25,10.0,Calm,Calm,-,N/A,,Clear,0,2012-10-06 22:53:00
4:53 PM,59.0,15.1,18,30.24,8.0,West,4.6,-,N/A,,Clear,270,2012-10-06 23:53:00
5:53 PM,54.0,21.0,28,30.25,6.0,West,4.6,-,N/A,,Haze,270,2012-10-07 00:53:00
6:53 PM,43.0,23.0,45,30.27,8.0,WSW,6.9,-,N/A,,Clear,250,2012-10-07 01:53:00
7:53 PM,39.0,19.9,46,30.27,10.0,Calm,Calm,-,N/A,,Clear,0,2012-10-07 02:53:00
8:53 PM,34.0,21.0,59,30.27,10.0,Calm,Calm,-,N/A,,Clear,0,2012-10-07 03:53:00
9:53 PM,37.0,18.0,46,30.24,10.0,SSW,3.5,-,N/A,,Clear,210,2012-10-07 04:53:00
10:53 PM,27.0,19.9,75,30.26,10.0,Calm,Calm,-,N/A,,Clear,0,2012-10-07 05:53:00
11:53 PM,28.9,18.0,64,30.25,10.0,Calm,Calm,-,N/A,,Clear,0,2012-10-07 06:53:00